This demonstration page uses our WeatherBlox Daily Observations layout. Learn more.

39.29038, -76.61219

Hourly Observations for September 26, 2020

Temp ( °F °C ) Dew Point ( °F °C ) Humidity (%) Winds ( mph kmh ) Pressure ( in mb ) Visibility ( mi km ) Precip ( " mm )
12:19 am 00:19 Cloudy with Rain 65 18.3 62 16.7 90 90 Calm 30.09 1019 2 3.21868 0.01 0.254
12:54 am 00:54 Cloudy with Light Rain 64 17.8 62 16.7 93 93 E 5 7 30.07 1018 2.5 4.02335 0.13 3.302
1:33 am 01:33 Cloudy with Light Rain 64 17.8 61 16.1 90 90 Calm 30.08 1019 5 8.0467 0.03 0.762
1:54 am 01:54 Cloudy with Light Rain 63 17.2 61 16.1 93 93 Calm 30.07 1018 3 4.82802 0.06 1.524
2:18 am 02:18 Cloudy with Light Rain 63 17.2 61 16.1 93 93 Calm 30.07 1018 2 3.21868 0.04 1.016
2:54 am 02:54 Cloudy with Light Rain 63 17.2 61 16.1 93 93 Calm 30.06 1018 1.5 2.41401 0.1 2.54
3:14 am 03:14 Cloudy with Light Rain 63 17.2 60 15.6 90 90 Calm 30.06 1018 2 3.21868 0.04 1.016
3:25 am 03:25 Cloudy with Light Rain 63 17.2 61 16.1 93 93 Calm 30.05 1018 2 3.21868 0.06 1.524
3:32 am 03:32 Cloudy with Light Rain 63 17.2 61 16.1 93 93 Calm 30.05 1018 1.5 2.41401 0.07 1.778
3:47 am 03:47 Cloudy with Light Rain 63 17.2 61 16.1 93 93 Calm 30.04 1017 2.5 4.02335 0.08 2.032
3:54 am 03:54 Cloudy with Light Rain 63 17.2 61 16.1 93 93 Calm 30.04 1017 2 3.21868 0.08 2.032
4:11 am 04:11 Cloudy with Light Rain 63 17.2 61 16.1 93 93 NE 5 7 30.04 1017 2.5 4.02335 0.02 0.508
4:42 am 04:42 Cloudy with Light Rain 63 17.2 61 16.1 93 93 NE 6 9 30.03 1017 3 4.82802 0.04 1.016
4:54 am 04:54 Cloudy with Light Rain 63 17.2 61 16.1 93 93 NE 3 6 30.03 1017 2.5 4.02335 0.05 1.27
5:16 am 05:16 Cloudy with Mist and Fog 63 17.2 60 15.6 90 90 ENE 6 9 30.04 1017 4 6.43736 0.01 0.254
5:35 am 05:35 Cloudy with Mist and Fog 63 17.2 61 16.1 93 93 ENE 9 15 30.04 1017 4 6.43736 0.01 0.254
5:54 am 05:54 Cloudy with Light Rain 63 17.2 61 16.1 93 93 ENE 7 11 30.04 1017 3 4.82802 0.02 0.508
6:31 am 06:31 Cloudy with Light Rain 63 17.2 61 16.1 93 93 NNE 7 11 30.03 1017 3 4.82802 0.01 0.254
6:46 am 06:46 Cloudy with Heavy Rain 62 16.7 61 16.1 96 96 NNE 5 7 30.03 1017 1.75 2.816345 0.1 2.54
6:54 am 06:54 Mostly Cloudy with Heavy Rain 62 16.7 60 15.6 93 93 NNE 6 9 30.04 1017 1 1.60934 0.22 5.588
7:48 am 07:48 Cloudy with Light Rain 63 17 61 16 94 94 NNE 5 7 30.05 1018 2 3.21868 0.29 7.366
7:54 am 07:54 Cloudy with Light Rain 63 17.2 61 16.1 93 93 VRB 3 6 30.05 1018 2 3.21868 0.29 7.366
8:03 am 08:03 Cloudy with Light Rain 63 17.2 61 16.1 93 93 N 3 6 30.05 1018 4 6.43736 0.001 0.001
8:54 am 08:54 Cloudy with Light Rain 63 17.2 61 16.1 93 93 NE 6 9 30.06 1018 6 9.65604 0.001 0.001
9:54 am 09:54 Cloudy with Light Drizzle 65 18.3 62 16.7 90 90 NE 7 11 30.06 1018 3 4.82802 0.03 0.762
10:54 am 10:54 Cloudy with Light Drizzle 65 18.3 63 17.2 93 93 NNE 7 11 30.05 1018 4 6.43736 0.001 0.001
11:54 am 11:54 Cloudy 67 19.4 63 17.2 87 87 ENE 7 11 30.04 1017 10 16.0934 0.001 0.001
12:47 pm 12:47 Cloudy 68 20 64 17.8 87 87 NNE 3 6 30.03 1017 7 11.26538 0 0
12:54 pm 12:54 Cloudy 68 20 64 17.8 87 87 NNW 3 6 30.03 1017 7 11.26538 0 0
1:54 pm 13:54 Cloudy 70 21.1 64 17.8 82 82 NW 6 9 30.01 1016 7 11.26538 0 0
2:54 pm 14:54 Cloudy with Light Rain 69 20.6 65 18.3 87 87 NNW 5 7 30 1016 4 6.43736 0.01 0.254
3:19 pm 15:19 Cloudy with Light Rain 69 20.6 66 18.9 90 90 VRB 3 6 30 1016 2.5 4.02335 0.02 0.508
3:33 pm 15:33 Cloudy with Mist and Fog 70 21.1 66 18.9 87 87 N 6 9 29.99 1015 4 6.43736 0.02 0.508
3:40 pm 15:40 Cloudy with Mist and Fog 70 21.1 66 18.9 87 87 N 5 7 29.99 1015 4 6.43736 0.02 0.508
3:54 pm 15:54 Mostly Cloudy 71 21.7 66 18.9 84 84 NNE 7 11 29.98 1015 7 11.26538 0.02 0.508
4:54 pm 16:54 Cloudy 72 22.2 66 18.9 82 82 Calm 29.97 1015 7 11.26538 0 0
5:32 pm 17:32 Cloudy 72 22.2 66 18.9 82 82 N 5 7 29.97 1015 10 16.0934 0 0
5:54 pm 17:54 Cloudy 71 21.7 66 18.9 84 84 NNE 3 6 29.98 1015 10 16.0934 0 0
6:54 pm 18:54 Cloudy with Light Rain 70 21.1 66 18.9 87 87 NW 3 6 29.98 1015 3 4.82802 0.001 0.001
7:01 pm 19:01 Cloudy with Mist and Fog 70 21.1 66 18.9 87 87 NW 5 7 29.99 1015 2 3.21868 0.001 0.001
7:25 pm 19:25 Cloudy with Light Rain 69 20.6 67 19.4 93 93 WNW 3 6 29.99 1015 1.5 2.41401 0.01 0.254
7:35 pm 19:35 Cloudy with Light Rain 69 20.6 67 19.4 93 93 NNW 6 9 29.99 1015 0.75 1.207005 0.07 1.778
7:42 pm 19:42 Cloudy with Light Rain 69 20.6 67 19.4 93 93 NNW 3 6 29.99 1015 1.75 2.816345 0.08 2.032
7:48 pm 19:48 Cloudy with Light Rain 70 21 66 19 88 88 NNW 3 6 30 1016 2.5 4.02335 0.08 2.032
7:54 pm 19:54 Cloudy with Light Rain 69 20.6 67 19.4 93 93 NNW 5 7 29.99 1016 2.5 4.02335 0.08 2.032
8:19 pm 20:19 Cloudy with Light Drizzle 69 20.6 66 18.9 90 90 NW 5 7 30 1016 4 6.43736 0.01 0.254
8:46 pm 20:46 Cloudy with Mist and Fog 69 20.6 67 19.4 93 93 N 3 6 30 1016 6 9.65604 0.01 0.254
8:54 pm 20:54 Cloudy with Mist and Fog 69 20.6 67 19.4 93 93 Calm 29.99 1016 5 8.0467 0.01 0.254
9:06 pm 21:06 Cloudy with Mist and Fog 69 20.6 67 19.4 93 93 NNW 3 6 30 1016 5 8.0467 0 0
9:54 pm 21:54 Cloudy with Mist and Fog 69 20.6 67 19.4 93 93 Calm 30 1016 5 8.0467 0 0
10:54 pm 22:54 Cloudy with Mist and Fog 69 20.6 66 18.9 90 90 Calm 29.99 1016 5 8.0467 0 0
11:06 pm 23:06 Cloudy 69 20.6 66 18.9 90 90 N 6 9 29.99 1015 7 11.26538 0 0
11:54 pm 23:54 Cloudy 69 20.6 66 18.9 90 90 N 3 6 29.98 1015 8 12.87472 0 0

Powered by AerisWeather